Location: Dugenta
(41.1333°N, 14.4500°E)
Time: 13:25:08
(UTC+00:00)

Nadezhda 3 Rocket - Pass Details

Date: 03 March 2021
Orbit: 957 x 999 km, 82.9° (Epoch: 12 April)

Event Time Altitude Azimuth Distance (km) Brightness Sun altitude
Rises 17:28:45 0° 356° (N) 3,724 7.1 -7.1°
Reaches altitude 10° 17:31:22 10° 1° (N) 2,774 6.4 -7.6°
Maximum altitude 17:37:36 54° 79° (E) 1,197 4.2 -8.7°
Drops below altitude 10° 17:43:48 10° 156° (SSE) 2,758 6.1 -9.9°
Sets 17:46:22 0° 161° (SSE) 3,701 6.8 -10.4°
